Homer, AK

7:41 AM AKST on February 09, 2016 (GMT -0900)
Homer

Weather History for PAHO - December, 2012

Change the Weather History Date:

Saturday, December 22, 2012

  Actual Average Record
Temperature  
Mean Temperature 11 °F -  
Max Temperature 21 °F 31 °F 50 °F (2004)
Min Temperature 1 °F 20 °F -8 °F (1942)
Degree Days  
Heating Degree Days 54    
Moisture  
Dew Point 5 °F    
Average Humidity 70    
Maximum Humidity 93    
Minimum Humidity 56    
Precipitation  
Precipitation 0.15 in - - ()
Sea Level Pressure  
Sea Level Pressure 29.68 in    
Wind  
Wind Speed 7 mph (NE)    
Max Wind Speed 22 mph    
Max Gust Speed 29 mph    
Visibility 7 miles    
Events Fog , Snow    
Averages and records for this station are not official NWS values.
T = Trace of Precipitation, MM = Missing Value Source: NWS Daily Summary

Daily Weather History Graph

Daily Weather History Graph

Search for Another Location

Airport or City:

Trip Planner

Search our weather history database for the weather conditions in past years. The results will help you decide how hot, cold, wet, or windy it might be!

Date:

Astronomy

Dec. 22, 2012 Rise Set
Actual Time 10:05 AM AKST 4:04 PM AKST
Civil Twilight 9:08 AM AKST 5:01 PM AKST
Nautical Twilight 8:12 AM AKST 5:57 PM AKST
Astronomical Twilight 7:21 AM AKST 6:48 PM AKST
Moon 1:13 PM AKST (12/22) 4:09 AM AKST (12/22)
Length of Visible Light 7h 52m
Length of Day
5h 59m
Waxing Gibbous, 75% of the Moon is Illuminated
Dec 22
Waxing Gibbous
Dec 28
Full
Jan 4
Last Quarter
Jan 11
New
Jan 18
First Quarter

Hourly Weather History & Observations

Time (AKST) Temp. Windchill Dew Point Humidity Pressure Visibility Wind Dir Wind Speed Gust Speed Precip Events Conditions
12:53 AM 7.0 °F 0.1 °F -5.1 °F 58% 29.92 in 10.0 mi NE 3.5 mph - N/A   Clear
1:53 AM 3.9 °F -5.3 °F -5.1 °F 66% 29.91 in 10.0 mi North 4.6 mph - N/A   Clear
3:53 AM 3.0 °F -4.4 °F -5.1 °F 69% 29.88 in 10.0 mi NNE 3.5 mph - N/A   Clear
4:53 AM 1.9 °F -7.6 °F -6.0 °F 69% 29.86 in 10.0 mi NNE 4.6 mph - N/A   Clear
5:53 AM 6.1 °F - -6.0 °F 58% 29.83 in 10.0 mi Calm Calm - N/A   Clear
6:53 AM 1.9 °F -5.6 °F -6.0 °F 69% 29.81 in 10.0 mi NNE 3.5 mph - N/A   Clear
7:53 AM 1.9 °F - -7.1 °F 66% 29.81 in 10.0 mi Calm Calm - N/A   Clear
8:53 AM 3.0 °F -6.4 °F -7.1 °F 63% 29.80 in 10.0 mi NE 4.6 mph - N/A   Clear
9:53 AM 5.0 °F -6.9 °F -6.0 °F 61% 29.78 in 10.0 mi NE 6.9 mph - N/A   Mostly Cloudy
10:53 AM 8.1 °F -0.5 °F -4.0 °F 58% 29.76 in 10.0 mi ENE 4.6 mph - N/A   Mostly Cloudy
11:53 AM 12.0 °F 1.5 °F 1.0 °F 61% 29.74 in 10.0 mi NE 6.9 mph - N/A   Overcast
12:53 PM 12.9 °F 5.2 °F -0.0 °F 56% 29.72 in 10.0 mi North 4.6 mph - N/A   Overcast
1:53 PM 15.1 °F 4.2 °F 3.0 °F 59% 29.70 in 10.0 mi NNE 8.1 mph - N/A   Overcast
2:53 PM 15.1 °F 6.4 °F 3.9 °F 61% 29.68 in 10.0 mi NE 5.8 mph - N/A   Mostly Cloudy
3:53 PM 16.0 °F 7.4 °F 3.0 °F 57% 29.65 in 10.0 mi ENE 5.8 mph - N/A   Overcast
4:53 PM 15.1 °F 4.2 °F 3.9 °F 61% 29.64 in 10.0 mi NE 8.1 mph - N/A   Mostly Cloudy
5:53 PM 14.0 °F 1.2 °F 3.9 °F 64% 29.62 in 10.0 mi ENE 10.4 mph - N/A   Overcast
6:53 PM 15.1 °F 6.4 °F 3.9 °F 61% 29.60 in 10.0 mi North 5.8 mph - N/A   Overcast
7:53 PM 12.9 °F - 3.9 °F 67% 29.60 in 10.0 mi Calm Calm - N/A   Scattered Clouds
8:53 PM 15.1 °F 6.4 °F 5.0 °F 64% 29.59 in 9.0 mi North 5.8 mph - 0.00 in   Overcast
9:11 PM 17.6 °F 9.3 °F 8.6 °F 68% 29.57 in 2.5 mi NNE 5.8 mph - 0.00 in Snow Light Snow
9:19 PM 17.6 °F 6.4 °F 10.4 °F 73% 29.57 in 1.2 mi NNE 9.2 mph - 0.00 in Snow Light Snow
9:38 PM 19.4 °F 4.5 °F 15.8 °F 86% 29.57 in 0.8 mi ENE 17.3 mph 23.0 mph 0.01 in Snow Light Snow
9:53 PM 19.9 °F 3.9 °F 17.1 °F 89% 29.57 in 1.2 mi ENE 20.7 mph 27.6 mph 0.02 in Snow Light Snow
9:59 PM 19.4 °F 4.1 °F 17.6 °F 93% 29.57 in 0.5 mi ENE 18.4 mph 25.3 mph 0.00 in Fog , Snow Snow
10:24 PM 21.2 °F 5.6 °F 17.6 °F 86% 29.57 in 0.2 mi ENE 20.7 mph 26.5 mph 0.06 in Fog , Snow Heavy Snow
10:50 PM 19.4 °F 2.8 °F 15.8 °F 86% 29.58 in 0.8 mi ENE 21.9 mph 28.8 mph 0.09 in Snow Light Snow
10:53 PM 19.9 °F 4.3 °F 16.0 °F 85% 29.58 in 0.8 mi ENE 19.6 mph 28.8 mph 0.09 in Snow Light Snow
11:11 PM 19.4 °F 3.6 °F 15.8 °F 86% 29.58 in 0.8 mi ENE 19.6 mph 26.5 mph 0.01 in Snow Light Snow
11:22 PM 19.4 °F 4.1 °F 17.6 °F 93% 29.57 in 0.5 mi ENE 18.4 mph 26.5 mph 0.02 in Fog , Snow Snow
11:53 PM 19.9 °F 5.7 °F 16.0 °F 85% 29.58 in 0.8 mi NE 16.1 mph 25.3 mph 0.04 in Snow Light Snow